Date,TemperatureHighF,TemperatureAvgF,TemperatureLowF,DewpointHighF,DewpointAvgF,DewpointLowF,HumidityHigh,HumidityAvg,HumidityLow,PressureMaxIn,PressureMinIn,WindSpeedMaxMPH,WindSpeedAvgMPH,GustSpeedMaxMPH,PrecipitationSumIn
2013-2-1,33.0,29.4,25.0,16.0,13.5,9.0,64,51,37,30.23,29.78,5,2,16,0.03
2013-2-2,31.0,25.9,20.0,22.0,11.2,7.0,83,54,37,30.32,30.07,5,1,14,0.00
2013-2-3,32.0,27.7,25.0,23.0,21.1,18.0,88,76,61,30.07,29.79,2,0,8,0.04
2013-2-4,32.0,28.4,24.0,22.0,13.9,10.0,74,54,42,29.98,29.81,7,2,14,0.01
2013-2-5,31.0,29.8,28.0,29.0,25.2,17.0,91,83,57,29.98,29.91,2,1,7,0.00
2013-2-6,40.0,34.1,30.0,29.0,23.2,6.0,92,67,36,30.36,29.92,3,1,10,0.03
2013-2-7,32.0,29.4,27.0,22.0,11.8,5.0,70,48,35,30.52,30.35,2,1,8,0.02
2013-2-8,34.0,32.4,28.0,34.0,29.1,24.0,100,88,71,30.35,29.63,7,3,23,0.14
2013-2-9,34.0,28.6,22.0,27.0,19.7,10.0,94,71,47,30.35,29.74,5,2,15,0.21
2013-2-10,40.0,28.1,18.0,27.0,16.4,9.0,78,62,40,30.50,30.34,2,0,7,0.25
2013-2-11,45.0,39.7,33.0,44.0,37.0,25.0,97,90,71,30.34,29.66,1,0,6,0.64
2013-2-12,47.0,41.4,37.0,41.0,29.8,26.0,96,64,51,29.97,29.72,5,1,14,0.01
2013-2-13,46.0,38.5,30.0,32.0,27.2,23.0,86,64,49,29.95,29.69,2,0,8,0.01
2013-2-14,48.0,39.5,33.0,35.0,30.6,26.0,89,72,44,29.99,29.71,3,1,9,0.03
2013-2-15,55.0,44.5,38.0,39.0,35.1,31.0,80,70,48,30.02,29.92,5,1,13,0.00
2013-2-16,43.0,36.3,32.0,34.0,27.6,18.0,89,71,55,29.97,29.74,5,1,13,0.02
2013-2-17,33.0,27.7,19.0,19.0,8.6,2.0,57,44,33,30.00,29.67,6,3,16,0.01
2013-2-18,37.0,27.2,18.0,14.0,8.4,4.0,59,45,32,30.24,30.00,4,1,15,0.00
2013-2-19,47.0,40.5,33.0,44.0,30.4,14.0,92,68,44,30.21,29.67,6,2,13,0.16
2013-2-20,40.0,32.1,26.0,30.0,16.8,11.0,66,53,43,29.98,29.72,5,2,15,0.04
2013-2-21,36.0,29.0,25.0,17.0,14.5,12.0,64,54,44,30.28,29.98,5,2,17,0.00
2013-2-22,38.0,32.3,26.0,31.0,23.0,16.0,79,68,58,30.41,30.27,3,1,10,0.00
2013-2-23,40.0,37.3,36.0,39.0,35.3,31.0,95,92,79,30.28,29.81,6,2,14,0.27
2013-2-24,47.0,39.6,34.0,39.0,32.9,23.0,95,78,58,29.96,29.74,4,1,14,0.04
2013-2-25,45.0,39.0,32.0,31.0,27.1,24.0,76,62,50,30.23,29.96,3,0,10,0.01
2013-2-26,44.0,39.1,35.0,36.0,32.2,29.0,91,76,63,30.30,29.91,7,2,16,0.15
2013-2-27,46.0,41.7,36.0,45.0,39.1,34.0,99,91,78,29.92,29.50,10,2,16,0.75
2013-2-28,52.0,45.5,40.0,40.0,35.8,31.0,81,69,53,29.63,29.54,2,0,6,0.01